Location: Stara Lesna
(49.1528°N, 20.2911°E)
Time: 02:42:24
(UTC+02:00)

Cosmos 1733 Rocket - Pass Details

Date: 21 September 2019
Orbit: 604 x 627 km, 82.5° (Epoch: 12 October)

Event Time Altitude Azimuth Distance (km) Brightness Sun altitude
Rises 04:37:26 0° 344° (NNW) 2,927 6.6 -17.6°
Reaches altitude 10° 04:39:45 10° 338° (NNW) 2,016 5.7 -17.3°
Maximum altitude 04:43:59 43° 268° (W) 888 3.4 -16.6°
Enters shadow 04:46:46 19° 205° (SSW) 1,489 4.6 -16.2°
